User: anonymous   Login
Location: *
(34.6780°N, 135.8310°E)
Time: 12:29:33
(UTC+00:00)
Language:

SeaSat 1 - Orbit

View from above orbital plane
View from above orbital plane
View from above satellite
View from above satellite

Ground track
Ground track

The orbit data is extracted from the following two-line orbital elements,

1 10967U 78064A   19341.92598356 -.00000075 +00000-0 +18128-4 0  9990
2 10967 108.0120 028.5959 0001487 279.6679 080.4298 14.43797678176800
Epoch (UTC): 07 December 2019 22:13:24
Eccentricity: 0.0001487
inclination: 108.0120°
perigee height: 745 km
apogee height: 747 km
right ascension of ascending node: 28.5959°
argument of perigee: 279.6679°
revolutions per day: 14.43797678
mean anomaly at epoch: 80.4298°
orbit number at epoch: 17680

The dashed part of the orbit path shows where the satellite is in the earth's shadow,  

DLR